Location: G�yn�k
(36.6721°N, 30.5542°E)
Time: 21:17:21
(UTC+00:00)

BREEZE-M DEB (TANK) - Pass Details

Date: 01 October 2020
Orbit: 333 x 12040 km, 49.7° (Epoch: 26 October)

Event Time Altitude Azimuth Distance (km) Brightness Sun altitude
Rises 22:29:48 0° 142° (SE) 14,294 9.1 -55.6°
Reaches altitude 10° 22:52:20 10° 127° (SE) 15,256 9.3 -53.7°
Maximum altitude 23:46:58 22° 94° (E) 14,448 9.4 -47.0°
Drops below altitude 10° 00:24:31 10° 63° (ENE) 11,962 9.5 -41.1°
Sets 00:35:24 0° 53° (NE) 11,300 9.7 -39.2°
